This demonstration page uses our WeatherBlox Daily Observations layout. Learn more.

Left ArrowRight Arrow

38.88101, -77.10428

Hourly Observations for May 2, 2020

Temp ( °F °C ) Dew Point ( °F °C ) Humidity (%) Winds ( mph kmh ) Pressure ( in mb ) Visibility ( mi km ) Precip ( " mm )
12:52 am 00:52 Clear 55 12.8 45 7.2 69 69 NNW 8 13 29.97 1015 10 16.0934 0 0
1:52 am 01:52 Clear 54 12.2 45 7.2 72 72 NW 9 15 29.98 1015 10 16.0934 0 0
2:52 am 02:52 Clear 54 12.2 45 7.2 72 72 NW 9 15 29.99 1016 10 16.0934 0 0
3:52 am 03:52 Clear 54 12.2 44 6.7 69 69 NW 7 11 30 1016 10 16.0934 0 0
4:52 am 04:52 Clear 53 11.7 43 6.1 69 69 NW 8 13 30.03 1017 10 16.0934 0 0
5:52 am 05:52 Mostly Clear 52 11.1 43 6.1 72 72 NW 10 17 30.05 1018 10 16.0934 0 0
6:52 am 06:52 Partly Cloudy 53 11.7 43 6.1 69 69 NW 9 15 30.09 1019 10 16.0934 0 0
7:52 am 07:52 Partly Cloudy 55 12.8 44 6.7 67 67 NNW 7 11 30.11 1020 10 16.0934 0 0
8:52 am 08:52 Mostly Cloudy 59 15 45 7.2 60 60 NNW 7 11 30.13 1020 10 16.0934 0 0
9:52 am 09:52 Mostly Cloudy 63 17.2 45 7.2 52 52 NNW 8 13 30.14 1021 10 16.0934 0 0
10:52 am 10:52 Mostly Cloudy 66 18.9 43 6.1 43 43 VRB 3 6 30.15 1021 10 16.0934 0 0
11:52 am 11:52 Mostly Cloudy 65 18.3 42 5.6 43 43 SE 6 9 30.14 1021 10 16.0934 0 0
12:52 pm 12:52 Partly Cloudy 68 20 37 2.8 32 32 SE 6 9 30.12 1020 10 16.0934 0 0
1:52 pm 13:52 Partly Cloudy 69 20.6 42 5.6 38 38 S 9 15 30.1 1019 10 16.0934 0 0
2:52 pm 14:52 Partly Cloudy 70 21.1 44 6.7 39 39 SSE 10 17 30.07 1018 10 16.0934 0 0
3:52 pm 15:52 Partly Cloudy 69 20.6 45 7.2 42 42 S 17 28 30.03 1017 10 16.0934 0 0
4:52 pm 16:52 Partly Cloudy 72 22.2 41 5 33 33 SSW 10 17 30.02 1017 10 16.0934 0 0
5:52 pm 17:52 Partly Cloudy 69 20.6 44 6.7 41 41 S 10 17 30 1016 10 16.0934 0 0
6:52 pm 18:52 Partly Cloudy 67 19.4 45 7.2 45 45 S 9 15 29.98 1015 10 16.0934 0 0
7:52 pm 19:52 Mostly Cloudy 68 20 41 5 38 38 SSW 12 19 29.98 1015 10 16.0934 0 0
8:52 pm 20:52 Mostly Cloudy 62 16.7 48 8.9 60 60 S 10 17 29.98 1015 10 16.0934 0 0
9:52 pm 21:52 Partly Cloudy 61 16.1 46 7.8 58 58 SSW 7 11 29.98 1015 10 16.0934 0 0
10:52 pm 22:52 Partly Cloudy 60 15.6 46 7.8 60 60 SSW 8 13 29.96 1015 10 16.0934 0 0
11:52 pm 23:52 Cloudy 60 15.6 50 10 70 70 S 9 15 29.94 1014 10 16.0934 0 0

Powered by AerisWeather